Weather History for Blythe, CA

Change the Weather History Date:

Wednesday, June 19, 2013

  Actual Average Record
Temperature  
Mean Temperature 88 °F -  
Max Temperature 104 °F 102 °F 115 °F (2008)
Min Temperature 75 °F 72 °F 61 °F (1975)
Cooling Degree Days 24    
Growing Degree Days 38 (Base 50)    
Moisture  
Dew Point 37 °F    
Average Humidity 17    
Maximum Humidity 34    
Minimum Humidity 7    
Precipitation  
Precipitation 0.00 in - - ()
Sea Level Pressure  
Sea Level Pressure 29.63 in    
Wind  
Wind Speed 6 mph (SSW)    
Max Wind Speed 13 mph    
Max Gust Speed -    
Visibility 10 miles    
Events      
Averages and records for this station are not official NWS values.
T = Trace of Precipitation, MM = Missing Value Source: NWS Daily Summary

Daily Weather History Graph

Daily Weather History Graph

Search for Another Location

Airport:

Trip Planner

Search our weather history database for the weather conditions in past years. The results will help you decide how hot, cold, wet, or windy it might be!

Date:

Astronomy

Jun. 19, 2013 Rise Set
Actual Time 5:28 AM PDT 7:51 PM PDT
Civil Twilight 4:59 AM PDT 8:20 PM PDT
Nautical Twilight 4:23 AM PDT 8:56 PM PDT
Astronomical Twilight 3:44 AM PDT 9:35 PM PDT
Moon 3:56 PM PDT (6/19) 2:07 AM PDT (6/19)
Length of Visible Light 15h 21m
Length of Day
14h 23m
Waxing Gibbous, 81% of the Moon is Illuminated
Jun 19
Waxing Gibbous
Jun 23
Full
Jun 29
Last Quarter
Jul 8
New
Jul 15
First Quarter

Hourly Weather History & Observations

Time (PDT) Temp. Dew Point Humidity Pressure Visibility Wind Dir Wind Speed Gust Speed Precip Events Conditions
12:52 AM 80.1 °F 46.9 °F 31% 29.60 in 10.0 mi SSE 8.1 mph - N/A   Clear
1:52 AM 82.9 °F 46.0 °F 27% 29.60 in 10.0 mi SW 4.6 mph - N/A   Clear
2:52 AM 80.1 °F 45.0 °F 29% 29.60 in 10.0 mi NW 11.5 mph - N/A   Clear
3:52 AM 78.1 °F 44.1 °F 30% 29.62 in 10.0 mi WNW 4.6 mph - N/A   Clear
4:52 AM 75.0 °F 45.0 °F 34% 29.63 in 10.0 mi SSW 4.6 mph - N/A   Clear
5:52 AM 75.9 °F 37.9 °F 25% 29.66 in 10.0 mi West 5.8 mph - N/A   Clear
6:52 AM 80.1 °F 39.0 °F 23% 29.67 in 10.0 mi WSW 6.9 mph - N/A   Clear
7:52 AM 84.0 °F 41.0 °F 22% 29.69 in 10.0 mi WSW 5.8 mph - N/A   Clear
8:52 AM 87.1 °F 39.9 °F 19% 29.70 in 10.0 mi Calm Calm - N/A   Clear
9:52 AM 91.0 °F 39.9 °F 17% 29.70 in 10.0 mi Calm Calm - N/A   Clear
10:52 AM 93.9 °F 37.0 °F 14% 29.70 in 10.0 mi Variable 4.6 mph - N/A   Clear
11:52 AM 93.9 °F 41.0 °F 16% 29.68 in 10.0 mi ESE 4.6 mph - N/A   Clear
12:52 PM 97.0 °F 37.9 °F 13% 29.67 in 10.0 mi East 5.8 mph - N/A   Clear
1:52 PM 100.0 °F 30.0 °F 9% 29.65 in 10.0 mi Calm Calm - N/A   Clear
2:52 PM 99.0 °F 34.0 °F 10% 29.63 in 10.0 mi Calm Calm - N/A   Clear
3:52 PM 102.0 °F 32.0 °F 9% 29.60 in 10.0 mi SSE 9.2 mph - N/A   Clear
4:52 PM 102.0 °F 32.0 °F 9% 29.59 in 10.0 mi SSE 8.1 mph - N/A   Clear
5:52 PM 102.9 °F 27.0 °F 7% 29.58 in 10.0 mi SSE 8.1 mph - N/A   Clear
6:52 PM 100.9 °F 28.9 °F 8% 29.58 in 10.0 mi SSE 8.1 mph - N/A   Clear
7:52 PM 97.0 °F 34.0 °F 11% 29.58 in 10.0 mi SSE 6.9 mph - N/A   Clear
8:52 PM 97.0 °F 28.9 °F 9% 29.59 in 10.0 mi SW 12.7 mph - N/A   Clear
9:52 PM 95.0 °F 34.0 °F 12% 29.60 in 10.0 mi WSW 12.7 mph - N/A   Clear
10:52 PM 91.0 °F 37.0 °F 15% 29.61 in 10.0 mi West 9.2 mph - N/A   Clear
11:52 PM 88.0 °F 39.9 °F 18% 29.61 in 10.0 mi West 11.5 mph - N/A   Clear